User: anonymous   Login
Location: Unspecified
(0.0000°N, 0.0000°E)
Time: 08:19:08
(UTC+00:00)
Language:

NUDTSAT - Orbit

View from above orbital plane
View from above orbital plane
View from above satellite
View from above satellite

Ground track
Ground track

The orbit data is extracted from the following two-line orbital elements,

1 42787U 17036Y   18267.94014914 +.00002164 +00000-0 +96061-4 0  9990
2 42787 097.3923 326.3447 0013527 087.6116 272.6669 15.22554779069548
Epoch (UTC): 24 September 2018 22:33:48
Eccentricity: 0.0013527
inclination: 97.3923°
perigee height: 489 km
apogee height: 507 km
right ascension of ascending node: 326.3447°
argument of perigee: 87.6116°
revolutions per day: 15.22554779
mean anomaly at epoch: 272.6669°
orbit number at epoch: 6954

The dashed part of the orbit path shows where the satellite is in the earth's shadow,  

DLR